Hourly Data Report for June 12, 2021

VINELAND STATION RCS
ONTARIO
Current Station Operator: ECCC - MSC

43°11'00.000" N
79°24'00.000" W
79.20 m
6139148
71171
XVN

Download Data

Hourly Data (June 2021)
Hourly Data Report for June 12, 2021
TIME
LST
Temp Definition
°C
Dew Point Definition
°C
Rel Hum Definition
%
Precip. Amount Definition
mm

Wind Dir Definition
10's deg

Wind Spd Definition
km/h
Visibility Definition
km
Stn Press Definition
kPa
Hmdx Definition


Wind Chill Definition


Weather Definition


00:00 14.0 12.5 91 0.0 6 8   100.16     LegendNANA
01:00 13.8 12.5 92 0.0 4 6   100.11     LegendNANA
02:00 14.1 13.1 94 0.0 1 9   100.12     LegendNANA
03:00 14.7 13.0 90 0.0 3 6   100.11     LegendNANA
04:00 14.8 12.7 88 0.0 5 4   100.13     LegendNANA
05:00 14.0 12.3 89 0.0 4 5   100.13     LegendNANA
06:00 15.0 12.9 87 0.0 3 5   100.24     LegendNANA
07:00 16.2 13.2 83 0.0 8 5   100.23     LegendNANA
08:00 17.0 13.4 79 0.0 4 8   100.27     LegendNANA
09:00 17.5 13.4 77 0.0 3 10   100.28     LegendNANA
10:00 17.5 14.1 80 0.0 3 10   100.26     LegendNANA
11:00 18.6 13.4 72 0.0 3 10   100.23     LegendNANA
12:00 18.3 13.5 73 0.0 35 11   100.20     LegendNANA
13:00 19.5 14.8 74 0.0 34 10   100.21     LegendNANA
14:00 19.6 13.0 65 0.0 34 10   100.18     LegendNANA
15:00 19.8 13.3 66 0.0 35 8   100.19     LegendNANA
16:00 19.9 12.7 63 0.0 35 7   100.13     LegendNANA
17:00 20.4 13.2 63 0.0 1 7   100.08     LegendNANA
18:00 20.4 12.3 60 0.0 36 5   100.06     LegendNANA
19:00 19.7 12.9 65 0.0 32 7   100.08     LegendNANA
20:00 17.7 13.4 75 0.0   0   100.07     LegendNANA
21:00 16.6 13.8 84 0.0 27 5   100.14     LegendNANA
22:00 16.7 13.4 81 0.0 12 4   100.10     LegendNANA
23:00 16.3 13.4 83 0.0   0   100.08     LegendNANA

Notes on Data Quality.

Legend

  • E = Estimated
  • M = Missing
  • NA = Not Available*
  • [empty] = Indicates an unobserved value
Date modified: